Time,TemperatureF,DewpointF,PressureIn,WindDirection,WindDirectionDegrees,WindSpeedMPH,WindSpeedGustMPH,Humidity,HourlyPrecipIn,Conditions,Clouds,dailyrainin,SoftwareType,DateUTC
2013-12-06 00:02:00,38.0,-99.9,-100.00,East,96,4.0,5.0,-999,-99.99,,,-99.99,,2013-12-06 07:02:00,
2013-12-06 00:10:00,34.0,-99.9,-100.00,East,95,4.0,4.0,-999,-99.99,,,-99.99,,2013-12-06 07:10:00,
2013-12-06 00:52:00,34.0,-99.9,-100.00,East,95,4.0,4.0,-999,-99.99,,,-99.99,,2013-12-06 07:52:00,
2013-12-06 01:02:00,34.0,-99.9,-100.00,East,95,4.0,4.0,-999,-99.99,,,-99.99,,2013-12-06 08:02:00,
2013-12-06 02:40:00,35.0,-99.9,-100.00,ENE,69,0.0,2.0,-999,-99.99,,,-99.99,,2013-12-06 09:40:00,
2013-12-06 03:23:00,35.0,-99.9,-100.00,ENE,69,0.0,2.0,-999,-99.99,,,-99.99,,2013-12-06 10:23:00,
2013-12-06 03:33:00,35.0,-99.9,-100.00,ENE,69,0.0,2.0,-999,-99.99,,,-99.99,,2013-12-06 10:33:00,
2013-12-06 04:20:00,30.0,-99.9,-100.00,NE,52,0.0,8.0,-999,-99.99,,,-99.99,,2013-12-06 11:20:00,
2013-12-06 04:22:00,32.0,-99.9,-100.00,ENE,73,2.0,2.0,-999,-99.99,,,-99.99,,2013-12-06 11:22:00,
2013-12-06 04:34:00,32.0,-99.9,-100.00,ENE,73,2.0,2.0,-999,-99.99,,,-99.99,,2013-12-06 11:34:00,
2013-12-06 05:10:00,31.0,-99.9,-100.00,ESE,114,4.0,4.0,-999,-99.99,,,-99.99,,2013-12-06 12:10:00,
2013-12-06 05:52:00,31.0,-99.9,-100.00,ESE,114,4.0,4.0,-999,-99.99,,,-99.99,,2013-12-06 12:52:00,
2013-12-06 06:02:00,31.0,-99.9,-100.00,ESE,114,4.0,4.0,-999,-99.99,,,-99.99,,2013-12-06 13:02:00,
2013-12-06 06:20:00,30.0,-99.9,-100.00,NE,44,1.0,1.0,-999,-99.99,,,-99.99,,2013-12-06 13:20:00,
2013-12-06 07:12:00,30.0,-99.9,-100.00,NE,44,1.0,1.0,-999,-99.99,,,-99.99,,2013-12-06 14:12:00,
2013-12-06 08:12:00,31.0,-99.9,-100.00,NW,314,1.0,2.0,-999,-99.99,,,-99.99,,2013-12-06 15:12:00,
2013-12-06 08:22:00,31.0,-99.9,-100.00,NW,314,1.0,2.0,-999,-99.99,,,-99.99,,2013-12-06 15:22:00,
2013-12-06 11:13:00,40.0,-99.9,-100.00,WNW,291,3.0,6.0,-999,-99.99,,,-99.99,,2013-12-06 18:13:00,
2013-12-06 11:23:00,41.0,-99.9,-100.00,NW,314,2.0,6.0,-999,-99.99,,,-99.99,,2013-12-06 18:23:00,
2013-12-06 11:33:00,41.0,-99.9,-100.00,NW,314,2.0,6.0,-999,-99.99,,,-99.99,,2013-12-06 18:33:00,
2013-12-06 11:52:00,43.0,-99.9,-100.00,SE,143,1.0,5.0,-999,-99.99,,,-99.99,,2013-12-06 18:52:00,
2013-12-06 12:10:00,44.0,-99.9,-100.00,ESE,117,2.0,6.0,-999,-99.99,,,-99.99,,2013-12-06 19:10:00,
2013-12-06 12:12:00,43.0,-99.9,-100.00,SSW,209,1.0,6.0,-999,-99.99,,,-99.99,,2013-12-06 19:12:00,
2013-12-06 12:22:00,43.0,-99.9,-100.00,SSW,209,1.0,6.0,-999,-99.99,,,-99.99,,2013-12-06 19:22:00,
2013-12-06 12:42:00,44.0,-99.9,-100.00,East,96,1.0,4.0,-999,-99.99,,,-99.99,,2013-12-06 19:42:00,
2013-12-06 12:52:00,44.0,-99.9,-100.00,ESE,117,2.0,6.0,-999,-99.99,,,-99.99,,2013-12-06 19:52:00,
2013-12-06 13:02:00,44.0,-99.9,-100.00,ESE,117,2.0,6.0,-999,-99.99,,,-99.99,,2013-12-06 20:02:00,
2013-12-06 14:22:00,48.0,-99.9,-100.00,ESE,103,3.0,3.0,-999,-99.99,,,-99.99,,2013-12-06 21:22:00,
2013-12-06 14:33:00,48.0,-99.9,-100.00,ESE,103,3.0,3.0,-999,-99.99,,,-99.99,,2013-12-06 21:33:00,
2013-12-06 17:22:00,47.0,-99.9,-100.00,SSW,206,0.0,1.0,-999,-99.99,,,-99.99,,2013-12-07 00:22:00,
2013-12-06 17:30:00,43.0,-99.9,-100.00,East,96,1.0,1.0,-999,-99.99,,,-99.99,,2013-12-07 00:30:00,
2013-12-06 17:32:00,47.0,-99.9,-100.00,SSW,206,0.0,1.0,-999,-99.99,,,-99.99,,2013-12-07 00:32:00,
2013-12-06 18:22:00,43.0,-99.9,-100.00,East,96,1.0,1.0,-999,-99.99,,,-99.99,,2013-12-07 01:22:00,
2013-12-06 18:52:00,41.0,-99.9,-100.00,East,93,4.0,5.0,-999,-99.99,,,-99.99,,2013-12-07 01:52:00,
2013-12-06 19:02:00,41.0,-99.9,-100.00,East,93,4.0,5.0,-999,-99.99,,,-99.99,,2013-12-07 02:02:00,
2013-12-06 19:22:00,41.0,-99.9,-100.00,East,84,3.0,6.0,-999,-99.99,,,-99.99,,2013-12-07 02:22:00,
2013-12-06 19:42:00,41.0,-99.9,-100.00,East,96,4.0,6.0,-999,-99.99,,,-99.99,,2013-12-07 02:42:00,
2013-12-06 19:53:00,41.0,-99.9,-100.00,East,96,4.0,6.0,-999,-99.99,,,-99.99,,2013-12-07 02:53:00,
2013-12-06 20:10:00,38.0,-99.9,-100.00,West,277,1.0,5.0,-999,-99.99,,,-99.99,,2013-12-07 03:10:00,
2013-12-06 20:11:00,38.0,-99.9,-100.00,ESE,117,0.0,1.0,-999,-99.99,,,-99.99,,2013-12-07 03:11:00,
2013-12-06 20:22:00,39.0,-99.9,-100.00,West,262,3.0,3.0,-999,-99.99,,,-99.99,,2013-12-07 03:22:00,
2013-12-06 20:40:00,38.0,-99.9,-100.00,ENE,73,5.0,5.0,-999,-99.99,,,-99.99,,2013-12-07 03:40:00,
2013-12-06 20:43:00,37.0,-99.9,-100.00,West,268,1.0,2.0,-999,-99.99,,,-99.99,,2013-12-07 03:43:00,
2013-12-06 20:53:00,38.0,-99.9,-100.00,West,277,1.0,5.0,-999,-99.99,,,-99.99,,2013-12-07 03:53:00,
2013-12-06 21:03:00,38.0,-99.9,-100.00,West,277,1.0,5.0,-999,-99.99,,,-99.99,,2013-12-07 04:03:00,
2013-12-06 21:23:00,38.0,-99.9,-100.00,ENE,73,5.0,5.0,-999,-99.99,,,-99.99,,2013-12-07 04:23:00,
2013-12-06 21:33:00,38.0,-99.9,-100.00,ENE,73,5.0,5.0,-999,-99.99,,,-99.99,,2013-12-07 04:33:00,
2013-12-06 21:50:00,36.0,-99.9,-100.00,ENE,72,2.0,4.0,-999,-99.99,,,-99.99,,2013-12-07 04:50:00,
2013-12-06 22:40:00,36.0,-99.9,-100.00,East,86,3.0,5.0,-999,-99.99,,,-99.99,,2013-12-07 05:40:00,
2013-12-06 22:43:00,36.0,-99.9,-100.00,ENE,72,2.0,4.0,-999,-99.99,,,-99.99,,2013-12-07 05:43:00,
2013-12-06 23:12:00,36.0,-99.9,-100.00,ENE,78,3.0,5.0,-999,-99.99,,,-99.99,,2013-12-07 06:12:00,
2013-12-06 23:20:00,33.0,-99.9,-100.00,ENE,78,4.0,5.0,-999,-99.99,,,-99.99,,2013-12-07 06:20:00,
2013-12-06 23:23:00,36.0,-99.9,-100.00,East,86,3.0,5.0,-999,-99.99,,,-99.99,,2013-12-07 06:23:00,
2013-12-06 23:32:00,36.0,-99.9,-100.00,East,86,3.0,5.0,-999,-99.99,,,-99.99,,2013-12-07 06:32:00,